RYR156 EGKK-EIDW

Flight info

Callsign RYR156
Flight time 0h 59m
Altitude 32000
Route NOVMA L620 NIBDA N14 OKSAW DCT BIBPE DCT OKTAD DCT MEDOG DCT KRAGY DCT PEMOB M17 VATRY VATRY4L
Aircraft B738/M-SDE2E3FGHIRWXY/LB1

Departure

Time 2026-05-03 21:27
Airport London Gatwick Airport (EGKK)

Arrival

Time 2026-05-03 22:27
Airport Dublin Airport (EIDW)
Time Latitude Longitude Altitude Speed Heading
2026-05-03 20:59 51.16152 -0.18054 210 ft 0 kts 77°
2026-05-03 21:15 51.16151 -0.18061 204 ft 3 kts 77°
2026-05-03 21:15 51.16145 -0.18102 204 ft 4 kts 77°
2026-05-03 21:15 51.16139 -0.18140 210 ft 4 kts 79°
2026-05-03 21:15 51.16140 -0.18176 212 ft 4 kts 133°
2026-05-03 21:16 51.16161 -0.18194 213 ft 3 kts 168°
2026-05-03 21:16 51.16169 -0.18196 212 ft 0 kts 168°
2026-05-03 21:19 51.16167 -0.18196 211 ft 1 kts 168°
2026-05-03 21:19 51.16151 -0.18190 210 ft 4 kts 168°
2026-05-03 21:19 51.16114 -0.18178 209 ft 6 kts 168°
2026-05-03 21:19 51.16065 -0.18161 213 ft 8 kts 167°
2026-05-03 21:20 51.16014 -0.18143 208 ft 7 kts 167°
2026-05-03 21:20 51.15965 -0.18125 204 ft 7 kts 167°
2026-05-03 21:20 51.15918 -0.18108 208 ft 7 kts 167°
2026-05-03 21:20 51.15871 -0.18092 210 ft 7 kts 167°
2026-05-03 21:21 51.15822 -0.18076 204 ft 9 kts 168°
2026-05-03 21:21 51.15749 -0.18054 209 ft 11 kts 169°
2026-05-03 21:21 51.15699 -0.17979 205 ft 11 kts 96°
2026-05-03 21:21 51.15712 -0.17865 206 ft 11 kts 77°
2026-05-03 21:22 51.15730 -0.17733 204 ft 13 kts 77°
2026-05-03 21:22 51.15750 -0.17594 214 ft 12 kts 77°
2026-05-03 21:22 51.15749 -0.17533 209 ft 8 kts 110°
2026-05-03 21:22 51.15701 -0.17496 213 ft 8 kts 168°
2026-05-03 21:23 51.15637 -0.17474 204 ft 11 kts 168°
2026-05-03 21:23 51.15566 -0.17450 213 ft 10 kts 168°
2026-05-03 21:23 51.15497 -0.17426 208 ft 10 kts 167°
2026-05-03 21:23 51.15430 -0.17403 212 ft 10 kts 168°
2026-05-03 21:24 51.15365 -0.17379 213 ft 10 kts 167°
2026-05-03 21:24 51.15301 -0.17356 213 ft 9 kts 167°
2026-05-03 21:24 51.15243 -0.17315 207 ft 9 kts 147°
2026-05-03 21:24 51.15194 -0.17256 208 ft 9 kts 131°
2026-05-03 21:25 51.15189 -0.17164 213 ft 9 kts 78°
2026-05-03 21:25 51.15201 -0.17066 204 ft 9 kts 78°
2026-05-03 21:25 51.15215 -0.16967 204 ft 9 kts 78°
2026-05-03 21:25 51.15223 -0.16879 205 ft 7 kts 90°
2026-05-03 21:26 51.15202 -0.16811 213 ft 7 kts 144°
2026-05-03 21:26 51.15155 -0.16795 209 ft 7 kts 178°
2026-05-03 21:26 51.15120 -0.16835 205 ft 7 kts 256°
2026-05-03 21:26 51.15109 -0.16910 212 ft 8 kts 256°
2026-05-03 21:27 51.15052 -0.17307 210 ft 71 kts 257°
2026-05-03 21:27 51.14897 -0.18425 209 ft 134 kts 257°
2026-05-03 21:27 51.14658 -0.20122 366 ft 169 kts 258°
2026-05-03 21:27 51.14475 -0.21905 1202 ft 163 kts 261°
2026-05-03 21:28 51.14242 -0.23715 1890 ft 166 kts 257°
2026-05-03 21:28 51.13975 -0.25587 2368 ft 186 kts 258°
2026-05-03 21:28 51.13685 -0.27747 2624 ft 212 kts 257°
2026-05-03 21:28 51.13328 -0.30156 2826 ft 235 kts 256°
2026-05-03 21:29 51.12936 -0.32819 3156 ft 256 kts 256°
2026-05-03 21:29 51.12536 -0.35591 3792 ft 260 kts 257°
2026-05-03 21:29 51.12135 -0.38415 3995 ft 262 kts 257°
2026-05-03 21:29 51.11740 -0.41264 4016 ft 264 kts 257°
2026-05-03 21:30 51.11251 -0.44062 4009 ft 262 kts 246°
2026-05-03 21:30 51.10439 -0.46651 4026 ft 262 kts 242°
2026-05-03 21:30 51.09606 -0.49191 4023 ft 262 kts 242°
2026-05-03 21:30 51.08774 -0.51771 4017 ft 263 kts 243°
2026-05-03 21:31 51.07949 -0.54374 4017 ft 263 kts 243°
2026-05-03 21:31 51.07132 -0.56972 4016 ft 263 kts 243°
2026-05-03 21:31 51.06318 -0.59572 4011 ft 263 kts 243°
2026-05-03 21:31 51.05602 -0.61868 4132 ft 266 kts 244°
2026-05-03 21:32 51.05028 -0.64669 4883 ft 267 kts 259°
2026-05-03 21:32 51.04700 -0.67568 5767 ft 266 kts 258°
2026-05-03 21:32 51.04343 -0.70462 6558 ft 268 kts 257°
2026-05-03 21:32 51.03965 -0.73383 7315 ft 271 kts 257°
2026-05-03 21:33 51.03578 -0.76326 8080 ft 273 kts 257°
2026-05-03 21:33 51.03183 -0.79292 8824 ft 276 kts 257°
2026-05-03 21:33 51.02780 -0.82288 9579 ft 279 kts 257°
2026-05-03 21:33 51.02370 -0.85325 10244 ft 284 kts 256°
2026-05-03 21:34 51.02035 -0.88552 10411 ft 309 kts 268°
2026-05-03 21:34 51.02542 -0.91970 10638 ft 333 kts 297°
2026-05-03 21:34 51.04117 -0.94730 11171 ft 345 kts 323°
2026-05-03 21:34 51.06112 -0.96815 11802 ft 350 kts 326°
2026-05-03 21:35 51.08212 -0.98827 12474 ft 355 kts 328°
2026-05-03 21:35 51.10364 -1.00809 13171 ft 359 kts 328°
2026-05-03 21:35 51.12542 -1.02821 13858 ft 364 kts 328°
2026-05-03 21:35 51.14737 -1.04871 14528 ft 367 kts 327°
2026-05-03 21:36 51.16939 -1.06954 15237 ft 369 kts 327°
2026-05-03 21:36 51.19151 -1.09064 15942 ft 372 kts 327°
2026-05-03 21:36 51.21382 -1.11205 16629 ft 376 kts 327°
2026-05-03 21:36 51.23632 -1.13370 17307 ft 379 kts 326°
2026-05-03 21:37 51.25902 -1.15561 18006 ft 383 kts 326°
2026-05-03 21:37 51.28195 -1.17774 18612 ft 386 kts 326°
2026-05-03 21:37 51.30507 -1.20007 19186 ft 390 kts 326°
2026-05-03 21:37 51.32836 -1.22254 19755 ft 393 kts 327°
2026-05-03 21:38 51.35301 -1.24237 20311 ft 399 kts 335°
2026-05-03 21:38 51.37914 -1.25829 20885 ft 403 kts 337°
2026-05-03 21:38 51.40562 -1.27368 21429 ft 407 kts 338°
2026-05-03 21:38 51.43231 -1.28925 21970 ft 410 kts 337°
2026-05-03 21:39 51.45922 -1.30522 22502 ft 414 kts 336°
2026-05-03 21:39 51.48587 -1.32134 23031 ft 417 kts 336°
2026-05-03 21:39 51.51312 -1.33792 23536 ft 420 kts 336°
2026-05-03 21:39 51.54063 -1.35456 23957 ft 424 kts 336°
2026-05-03 21:40 51.56832 -1.37120 24397 ft 426 kts 335°
2026-05-03 21:40 51.59448 -1.39306 24800 ft 423 kts 320°
2026-05-03 21:40 51.61607 -1.42484 25248 ft 418 kts 306°
2026-05-03 21:40 51.63227 -1.46332 25674 ft 415 kts 295°
2026-05-03 21:41 51.64551 -1.50467 26060 ft 417 kts 293°
2026-05-03 21:41 51.65863 -1.54665 26436 ft 421 kts 293°
2026-05-03 21:41 51.67208 -1.58875 26820 ft 424 kts 294°
2026-05-03 21:41 51.68588 -1.63093 27208 ft 427 kts 294°
2026-05-03 21:42 51.69864 -1.67407 27661 ft 424 kts 287°
2026-05-03 21:42 51.70693 -1.71922 28224 ft 417 kts 277°
2026-05-03 21:42 51.71066 -1.76535 28791 ft 413 kts 272°
2026-05-03 21:42 51.71353 -1.81131 29284 ft 412 kts 272°
2026-05-03 21:43 51.71666 -1.85679 29734 ft 414 kts 275°
2026-05-03 21:43 51.72209 -1.90249 30184 ft 415 kts 279°
2026-05-03 21:43 51.72892 -1.94773 30626 ft 415 kts 281°
2026-05-03 21:43 51.73613 -1.99300 30931 ft 417 kts 281°
2026-05-03 21:44 51.74336 -2.03837 31280 ft 418 kts 281°
2026-05-03 21:44 51.75041 -2.08382 31711 ft 416 kts 281°
2026-05-03 21:44 51.75733 -2.12919 31917 ft 418 kts 280°
2026-05-03 21:44 51.76413 -2.17485 31918 ft 417 kts 279°
2026-05-03 21:45 51.77746 -2.26560 31924 ft 414 kts 280°
2026-05-03 21:45 51.79064 -2.35634 31931 ft 415 kts 280°
2026-05-03 21:46 51.80368 -2.44653 31950 ft 415 kts 281°
2026-05-03 21:46 51.81685 -2.53743 31942 ft 416 kts 281°
2026-05-03 21:47 51.82951 -2.62882 31932 ft 416 kts 280°
2026-05-03 21:47 51.84184 -2.72040 31935 ft 417 kts 280°
2026-05-03 21:48 51.85405 -2.81211 31930 ft 418 kts 279°
2026-05-03 21:48 51.86633 -2.90414 31962 ft 418 kts 279°
2026-05-03 21:49 51.87851 -2.99603 31961 ft 418 kts 279°
2026-05-03 21:49 51.89059 -3.08812 31962 ft 418 kts 279°
2026-05-03 21:50 51.90251 -3.17962 31949 ft 418 kts 279°
2026-05-03 21:50 51.91452 -3.27181 31945 ft 418 kts 279°
2026-05-03 21:51 51.92643 -3.36385 31939 ft 417 kts 279°
2026-05-03 21:51 51.93821 -3.45605 31944 ft 417 kts 279°
2026-05-03 21:52 51.94992 -3.54833 31933 ft 418 kts 279°
2026-05-03 21:52 51.96166 -3.64058 31941 ft 418 kts 279°
2026-05-03 21:53 51.97347 -3.73293 31929 ft 418 kts 280°
2026-05-03 21:53 51.98515 -3.82535 31931 ft 418 kts 280°
2026-05-03 21:54 51.99663 -3.91732 31943 ft 419 kts 280°
2026-05-03 21:54 52.00807 -4.01010 31930 ft 419 kts 279°
2026-05-03 21:55 52.01944 -4.10315 31931 ft 420 kts 279°
2026-05-03 21:55 52.03086 -4.19623 31941 ft 420 kts 279°
2026-05-03 21:56 52.04211 -4.28881 31939 ft 420 kts 279°
2026-05-03 21:56 52.05318 -4.38014 31895 ft 401 kts 279°
2026-05-03 21:57 52.05852 -4.42429 31627 ft 394 kts 280°
2026-05-03 21:57 52.06373 -4.46778 31335 ft 390 kts 279°
2026-05-03 21:57 52.06883 -4.51096 30988 ft 388 kts 279°
2026-05-03 21:57 52.07391 -4.55390 30652 ft 385 kts 279°
2026-05-03 21:58 52.07897 -4.59653 30311 ft 383 kts 279°
2026-05-03 21:58 52.08395 -4.63895 29968 ft 381 kts 279°
2026-05-03 21:58 52.08893 -4.68124 29561 ft 379 kts 279°
2026-05-03 21:58 52.09386 -4.72316 29184 ft 376 kts 279°
2026-05-03 21:59 52.09868 -4.76481 28830 ft 372 kts 279°
2026-05-03 21:59 52.10349 -4.80609 28471 ft 369 kts 279°
2026-05-03 21:59 52.10826 -4.84697 28107 ft 366 kts 279°
2026-05-03 21:59 52.11296 -4.88755 27777 ft 363 kts 279°
2026-05-03 22:00 52.11761 -4.92778 27434 ft 361 kts 280°
2026-05-03 22:00 52.12221 -4.96789 27071 ft 359 kts 280°
2026-05-03 22:00 52.12675 -5.00778 26717 ft 357 kts 280°
2026-05-03 22:00 52.13125 -5.04748 26384 ft 355 kts 281°
2026-05-03 22:01 52.13566 -5.08651 26054 ft 353 kts 280°
2026-05-03 22:01 52.14069 -5.12548 25715 ft 351 kts 290°
2026-05-03 22:01 52.15271 -5.15947 25410 ft 345 kts 314°
2026-05-03 22:01 52.17086 -5.18411 25130 ft 338 kts 332°
2026-05-03 22:02 52.19156 -5.20196 24870 ft 335 kts 336°
2026-05-03 22:02 52.21253 -5.21875 24559 ft 338 kts 337°
2026-05-03 22:02 52.23396 -5.23572 24261 ft 346 kts 337°
2026-05-03 22:02 52.25571 -5.25310 23932 ft 348 kts 336°
2026-05-03 22:03 52.27737 -5.27068 23603 ft 347 kts 336°
2026-05-03 22:03 52.29887 -5.28829 23233 ft 345 kts 336°
2026-05-03 22:03 52.32024 -5.30591 22863 ft 343 kts 336°
2026-05-03 22:03 52.34144 -5.32342 22537 ft 340 kts 336°
2026-05-03 22:04 52.36246 -5.34084 22214 ft 337 kts 336°
2026-05-03 22:04 52.38330 -5.35806 21951 ft 334 kts 336°
2026-05-03 22:04 52.40400 -5.37524 21674 ft 333 kts 335°
2026-05-03 22:04 52.42354 -5.39436 21396 ft 333 kts 325°
2026-05-03 22:05 52.44178 -5.41800 21157 ft 335 kts 322°
2026-05-03 22:05 52.45979 -5.44255 20902 ft 338 kts 322°
2026-05-03 22:05 52.47784 -5.46737 20650 ft 338 kts 323°
2026-05-03 22:05 52.49585 -5.49210 20390 ft 337 kts 322°
2026-05-03 22:06 52.51387 -5.51675 20136 ft 337 kts 322°
2026-05-03 22:06 52.53191 -5.54136 19888 ft 336 kts 323°
2026-05-03 22:06 52.54985 -5.56571 19645 ft 335 kts 322°
2026-05-03 22:06 52.56757 -5.58974 19400 ft 333 kts 322°
2026-05-03 22:07 52.58545 -5.61399 19172 ft 331 kts 322°
2026-05-03 22:07 52.60311 -5.63798 18907 ft 328 kts 322°
2026-05-03 22:07 52.62068 -5.66181 18601 ft 326 kts 323°
2026-05-03 22:07 52.63816 -5.68553 18303 ft 324 kts 323°
2026-05-03 22:08 52.65554 -5.70914 17967 ft 322 kts 323°
2026-05-03 22:08 52.67278 -5.73257 17640 ft 320 kts 322°
2026-05-03 22:08 52.68414 -5.74802 17434 ft 318 kts 322°
2026-05-03 22:08 52.70117 -5.77123 17115 ft 316 kts 322°
2026-05-03 22:09 52.71808 -5.79428 16815 ft 314 kts 322°
2026-05-03 22:09 52.73485 -5.81716 16514 ft 312 kts 322°
2026-05-03 22:09 52.75149 -5.83993 16214 ft 310 kts 323°
2026-05-03 22:10 52.78449 -5.88504 15625 ft 306 kts 322°
2026-05-03 22:10 52.80087 -5.90749 15322 ft 304 kts 322°
2026-05-03 22:10 52.81711 -5.92980 15042 ft 303 kts 322°
2026-05-03 22:10 52.83328 -5.95200 14755 ft 301 kts 322°
2026-05-03 22:11 52.84921 -5.97389 14466 ft 301 kts 322°
2026-05-03 22:11 52.86545 -5.99628 14167 ft 299 kts 322°
2026-05-03 22:11 52.88120 -6.01798 13882 ft 298 kts 323°
2026-05-03 22:11 52.89712 -6.03991 13569 ft 297 kts 323°
2026-05-03 22:12 52.91298 -6.06175 13260 ft 296 kts 322°
2026-05-03 22:12 52.92876 -6.08355 12961 ft 294 kts 322°
2026-05-03 22:12 52.94447 -6.10528 12656 ft 293 kts 322°
2026-05-03 22:12 52.96011 -6.12691 12375 ft 291 kts 322°
2026-05-03 22:13 52.97565 -6.14842 12091 ft 289 kts 323°
2026-05-03 22:13 52.99107 -6.16985 11817 ft 288 kts 322°
2026-05-03 22:13 53.00643 -6.19117 11531 ft 286 kts 322°
2026-05-03 22:13 53.02166 -6.21235 11252 ft 285 kts 322°
2026-05-03 22:14 53.03682 -6.23339 10973 ft 283 kts 321°
2026-05-03 22:14 53.05171 -6.25413 10701 ft 282 kts 321°
2026-05-03 22:14 53.06666 -6.27499 10428 ft 280 kts 321°
2026-05-03 22:14 53.08161 -6.29580 10156 ft 279 kts 321°
2026-05-03 22:15 53.09629 -6.31634 10035 ft 271 kts 321°
2026-05-03 22:15 53.11070 -6.33646 9772 ft 270 kts 322°
2026-05-03 22:15 53.12499 -6.35644 9489 ft 268 kts 322°
2026-05-03 22:15 53.13921 -6.37637 9240 ft 266 kts 322°
2026-05-03 22:16 53.15336 -6.39615 8969 ft 265 kts 322°
2026-05-03 22:16 53.16742 -6.41588 8705 ft 263 kts 322°
2026-05-03 22:16 53.18140 -6.43550 8456 ft 262 kts 322°
2026-05-03 22:16 53.19509 -6.45479 8196 ft 261 kts 322°
2026-05-03 22:17 53.20893 -6.47423 7943 ft 259 kts 322°
2026-05-03 22:17 53.22271 -6.49359 7691 ft 258 kts 322°
2026-05-03 22:17 53.23635 -6.51284 7438 ft 256 kts 322°
2026-05-03 22:17 53.24995 -6.53199 7188 ft 255 kts 322°
2026-05-03 22:18 53.26346 -6.55110 6938 ft 254 kts 322°
2026-05-03 22:18 53.27689 -6.57004 6716 ft 252 kts 323°
2026-05-03 22:18 53.29021 -6.58886 6484 ft 250 kts 322°
2026-05-03 22:18 53.30344 -6.60761 6237 ft 249 kts 323°
2026-05-03 22:19 53.31660 -6.62620 6002 ft 246 kts 323°
2026-05-03 22:19 53.32944 -6.64446 5911 ft 238 kts 323°
2026-05-03 22:19 53.34190 -6.66212 5797 ft 231 kts 323°
2026-05-03 22:19 53.35403 -6.67929 5704 ft 227 kts 323°
2026-05-03 22:20 53.36712 -6.69359 5554 ft 224 kts 348°
2026-05-03 22:20 53.38243 -6.69303 5433 ft 224 kts 10°
2026-05-03 22:20 53.39801 -6.69034 5172 ft 229 kts
2026-05-03 22:20 53.41378 -6.68808 5031 ft 224 kts
2026-05-03 22:21 53.42911 -6.68575 4837 ft 219 kts
2026-05-03 22:21 53.44378 -6.68178 4578 ft 210 kts 26°
2026-05-03 22:21 53.45355 -6.66535 4372 ft 199 kts 70°
2026-05-03 22:21 53.45473 -6.64275 4189 ft 192 kts 88°
2026-05-03 22:22 53.45547 -6.62077 3978 ft 186 kts 83°
2026-05-03 22:22 53.45536 -6.59924 3745 ft 183 kts 92°
2026-05-03 22:22 53.45420 -6.57829 3550 ft 175 kts 92°
2026-05-03 22:22 53.45301 -6.55841 3517 ft 173 kts 92°
2026-05-03 22:23 53.45182 -6.53808 3298 ft 174 kts 92°
2026-05-03 22:23 53.45068 -6.51802 3049 ft 171 kts 92°
2026-05-03 22:23 53.44955 -6.49868 2834 ft 167 kts 92°
2026-05-03 22:23 53.44841 -6.47927 2613 ft 166 kts 92°
2026-05-03 22:24 53.44734 -6.46066 2402 ft 156 kts 92°
2026-05-03 22:24 53.44634 -6.44289 2182 ft 152 kts 92°
2026-05-03 22:24 53.44534 -6.42515 1983 ft 155 kts 93°
2026-05-03 22:24 53.44430 -6.40715 1762 ft 153 kts 92°
2026-05-03 22:25 53.44329 -6.38944 1544 ft 150 kts 92°
2026-05-03 22:25 53.44233 -6.37248 1330 ft 143 kts 92°
2026-05-03 22:25 53.44140 -6.35571 1132 ft 145 kts 92°
2026-05-03 22:25 53.44034 -6.33902 947 ft 143 kts 94°
2026-05-03 22:26 53.43928 -6.32238 747 ft 144 kts 91°
2026-05-03 22:26 53.43839 -6.30595 543 ft 138 kts 91°
2026-05-03 22:26 53.43764 -6.29009 354 ft 134 kts 90°
2026-05-03 22:26 53.43688 -6.27466 218 ft 125 kts 96°
2026-05-03 22:27 53.43630 -6.26385 220 ft 61 kts 95°
2026-05-03 22:27 53.43602 -6.25934 214 ft 31 kts 96°
2026-05-03 22:27 53.43581 -6.25601 210 ft 20 kts 99°
2026-05-03 22:27 53.43567 -6.25421 212 ft 14 kts 100°
2026-05-03 22:28 53.43539 -6.25272 212 ft 13 kts 114°
2026-05-03 22:28 53.43498 -6.25139 215 ft 13 kts 118°
2026-05-03 22:28 53.43454 -6.25011 210 ft 12 kts 128°
2026-05-03 22:28 53.43391 -6.25010 215 ft 9 kts 218°
2026-05-03 22:29 53.43380 -6.25107 210 ft 9 kts 275°
2026-05-03 22:29 53.43386 -6.25206 215 ft 8 kts 276°
2026-05-03 22:29 53.43393 -6.25306 216 ft 9 kts 276°
2026-05-03 22:29 53.43399 -6.25411 212 ft 9 kts 275°
2026-05-03 22:30 53.43405 -6.25519 210 ft 9 kts 275°
2026-05-03 22:30 53.43399 -6.25622 217 ft 9 kts 239°
2026-05-03 22:30 53.43344 -6.25639 216 ft 9 kts 158°
2026-05-03 22:30 53.43287 -6.25601 212 ft 9 kts 158°
2026-05-03 22:31 53.43233 -6.25561 210 ft 8 kts 156°
2026-05-03 22:31 53.43194 -6.25497 210 ft 8 kts 107°
2026-05-03 22:31 53.43204 -6.25401 215 ft 9 kts 69°
2026-05-03 22:31 53.43227 -6.25312 211 ft 8 kts 69°
2026-05-03 22:32 53.43228 -6.25212 218 ft 10 kts 96°
2026-05-03 22:32 53.43222 -6.25094 210 ft 10 kts 94°
2026-05-03 22:32 53.43217 -6.24978 214 ft 10 kts 95°
2026-05-03 22:32 53.43211 -6.24884 217 ft 4 kts 107°
2026-05-03 22:33 53.43190 -6.24858 213 ft 4 kts 146°
2026-05-03 22:33 53.43164 -6.24843 210 ft 4 kts 170°
2026-05-03 22:33 53.43134 -6.24852 210 ft 4 kts 195°
2026-05-03 22:33 53.43115 -6.24856 211 ft 1 kts 186°
2026-05-03 22:34 53.43110 -6.24857 213 ft 0 kts 186°
2026-05-03 22:35 53.43101 -6.24829 218 ft 0 kts 185°